Millbury, OH

10:57 PM EST on February 24, 2017 (GMT -0500)
Metcalf

Weather History for KTDZ - March, 2013

Change the Weather History Date:

Saturday, March 23, 2013

  Actual Average (KTOL) Record (KTOL)
Temperature  
Mean Temperature 31 °F -  
Max Temperature 42 °F 48 °F 73 °F (1988)
Min Temperature 23 °F 27 °F 5 °F (1888)
Degree Days  
Heating Degree Days 34    
Moisture  
Dew Point 22 °F    
Average Humidity 68    
Maximum Humidity 85    
Minimum Humidity 49    
Precipitation  
Precipitation 0.00 in - - ()
Sea Level Pressure  
Sea Level Pressure 30.08 in    
Wind  
Wind Speed 5 mph (North)    
Max Wind Speed 8 mph    
Max Gust Speed -    
Visibility 10 miles    
Events      
Averages and records for this station are not official NWS values.
T = Trace of Precipitation, MM = Missing Value Source: NWS Daily Summary

Daily Weather History Graph

Daily Weather History Graph

Search for Another Location

Airport or City:

Trip Planner

Search our weather history database for the weather conditions in past years. The results will help you decide how hot, cold, wet, or windy it might be!

Date:

Astronomy

Mar. 23, 2013 Rise Set
Actual Time 7:31 AM EDT 7:49 PM EDT
Civil Twilight 7:04 AM EDT 8:17 PM EDT
Nautical Twilight 6:31 AM EDT 8:50 PM EDT
Astronomical Twilight 5:58 AM EDT 9:23 PM EDT
Moon 4:13 PM EDT (3/23) 5:10 AM EDT (3/23)
Length of Visible Light 13h 13m
Length of Day
12h 17m
Waxing Gibbous, 85% of the Moon is Illuminated
Mar 23
Waxing Gibbous
Mar 27
Full
Apr 3
Last Quarter
Apr 10
New
Apr 18
First Quarter

Hourly Weather History & Observations

Time (EDT) Temp. Windchill Dew Point Humidity Pressure Visibility Wind Dir Wind Speed Gust Speed Precip Events Conditions
12:53 AM 28.9 °F 22.8 °F 21.9 °F 75% 30.05 in 10.0 mi NNW 5.8 mph - N/A   Clear
1:53 AM 25.0 °F 18.1 °F 19.9 °F 81% 30.06 in 10.0 mi WNW 5.8 mph - N/A   Clear
2:53 AM 26.1 °F 21.9 °F 19.9 °F 78% 30.05 in 10.0 mi WNW 3.5 mph - N/A   Clear
3:53 AM 24.1 °F 17.0 °F 19.0 °F 81% 30.05 in 10.0 mi West 5.8 mph - N/A   Clear
4:53 AM 23.0 °F 17.0 °F 19.0 °F 85% 30.04 in 10.0 mi West 4.6 mph - N/A   Clear
5:53 AM 23.0 °F 17.0 °F 19.0 °F 85% 30.05 in 10.0 mi West 4.6 mph - N/A   Clear
6:53 AM 23.0 °F 17.0 °F 19.0 °F 85% 30.06 in 10.0 mi WNW 4.6 mph - N/A   Clear
7:53 AM 24.1 °F 18.2 °F 19.0 °F 81% 30.07 in 10.0 mi NNW 4.6 mph - N/A   Clear
8:53 AM 28.0 °F 24.2 °F 23.0 °F 81% 30.09 in 9.0 mi NW 3.5 mph - N/A   Clear
9:53 AM 30.9 °F - 25.0 °F 79% 30.11 in 10.0 mi Calm Calm - N/A   Clear
10:53 AM 35.1 °F 30.1 °F 23.0 °F 61% 30.11 in 10.0 mi NNE 5.8 mph - N/A   Partly Cloudy
11:16 AM 35.6 °F 30.7 °F 24.8 °F 65% 30.09 in 10.0 mi NE 5.8 mph - N/A   Mostly Cloudy
11:35 AM 35.6 °F 29.9 °F 23.0 °F 60% 30.09 in 10.0 mi North 6.9 mph - N/A   Scattered Clouds
11:43 AM 33.8 °F 29.6 °F 23.0 °F 65% 30.09 in 10.0 mi North 4.6 mph - N/A   Mostly Cloudy
11:53 AM 34.0 °F 27.2 °F 23.0 °F 64% 30.11 in 10.0 mi NNE 8.1 mph - N/A   Mostly Cloudy
12:28 PM 35.6 °F - 23.0 °F 60% 30.10 in 10.0 mi Calm Calm - N/A   Overcast
12:53 PM 36.0 °F 33.3 °F 23.0 °F 59% 30.11 in 10.0 mi Variable 3.5 mph - N/A   Overcast
1:53 PM 36.0 °F 32.1 °F 23.0 °F 59% 30.11 in 10.0 mi East 4.6 mph - N/A   Overcast
2:53 PM 37.0 °F - 21.9 °F 54% 30.10 in 10.0 mi Calm Calm - N/A   Overcast
3:53 PM 37.9 °F 34.4 °F 23.0 °F 55% 30.09 in 10.0 mi Variable 4.6 mph - N/A   Overcast
4:53 PM 39.9 °F 35.1 °F 23.0 °F 51% 30.08 in 10.0 mi Variable 6.9 mph - N/A   Overcast
5:53 PM 39.9 °F 35.1 °F 23.0 °F 51% 30.08 in 10.0 mi Variable 6.9 mph - N/A   Scattered Clouds
6:53 PM 39.0 °F 35.7 °F 21.0 °F 49% 30.08 in 10.0 mi East 4.6 mph - N/A   Clear
7:53 PM 35.1 °F 30.1 °F 23.0 °F 61% 30.07 in 10.0 mi ENE 5.8 mph - N/A   Clear
8:53 PM 32.0 °F 28.7 °F 21.9 °F 66% 30.08 in 10.0 mi East 3.5 mph - N/A   Clear
9:53 PM 30.9 °F 26.2 °F 21.9 °F 69% 30.08 in 10.0 mi East 4.6 mph - N/A   Clear
10:53 PM 28.9 °F 25.2 °F 21.0 °F 72% 30.08 in 10.0 mi East 3.5 mph - N/A   Clear
11:53 PM 27.0 °F 21.6 °F 19.9 °F 75% 30.05 in 10.0 mi East 4.6 mph - N/A   Clear